User: anonymous   Login
Location: Arcizac
(43.0933°N, 0.0112°E)
Time: 09:51:46
(UTC+00:00)
Language:

Okean-O - Orbit

View from above orbital plane
View from above orbital plane
View from above satellite
View from above satellite

Ground track
Ground track

The orbit data is extracted from the following two-line orbital elements,

1 25860U 99039A   20055.53650864 +.00000023 +00000-0 +10930-4 0  9992
2 25860 098.2218 072.5019 0000926 113.5541 246.5765 14.76647548108707
Epoch (UTC): 24 February 2020 12:52:34
Eccentricity: 0.0000926
inclination: 98.2218°
perigee height: 639 km
apogee height: 640 km
right ascension of ascending node: 72.5019°
argument of perigee: 113.5541°
revolutions per day: 14.76647548
mean anomaly at epoch: 246.5765°
orbit number at epoch: 10870

The dashed part of the orbit path shows where the satellite is in the earth's shadow,  

DLR